User: anonymous   Login
Location: Grange Verzio
(44.5000°N, 6.9833°E)
Time: 22:49:57
(UTC+00:00)
Language:

Cosmos 2322 Rocket - Orbit

View from above orbital plane
View from above orbital plane
View from above satellite
View from above satellite

Ground track
Ground track

The orbit data is extracted from the following two-line orbital elements,

1 23705U 95058B   23151.45101869  .00000289  00000-0  17281-3 0  9991
2 23705  71.0202 147.0694 0014101 229.7695 130.2195 14.15232625424483
Epoch (UTC): 31 May 2023 10:49:28
Eccentricity: 0.0014101
inclination: 71.0202°
perigee height: 831 km
apogee height: 852 km
right ascension of ascending node: 147.0694°
argument of perigee: 229.7695°
revolutions per day: 14.15232625
mean anomaly at epoch: 130.2195°
orbit number at epoch: 42448

The dashed part of the orbit path shows where the satellite is in the earth's shadow,  

DLR